www.pogodaiklimat.ru

Погода и климат >> Архив погоды >> Норвегия >> Маяк Fruholmen


ПОГОДА на Маяке Fruholmen

  • Прогноз погоды на Маяке Fruholmen
  • Монитор погоды на Маяке Fruholmen

АРХИВ ПОГОДЫ на Маяке Fruholmen

Время (UTC), дата Ветер
(напр.,м/с)
 
Видим.   Явления Облачность Т
(С)
Тd
(С)
f
(%)
Тe
(С)
Тes
(С)
Комфортность P
(гПа)
Po
(гПа)
Тmin
(С)
Tmax
(С)
R
(мм)
R24
(мм)
S
(см)
04 11.07 С 3-3
{3}
н/о н/о +7.7 +5.4 85 +5 +5 1014.7 1013.0
05 11.07 СВ 2-3
{3}
н/о н/о +7.8 +5.5 85 +6 +6 1014.5 1012.8
06 11.07 СВ 2-3
{3}
н/о н/о +7.9 +5.7 86 +6 +6 1014.5 1012.8 +7.5 +8.1
07 11.07 С 2-3
{3}
н/о н/о +8.3 +5.7 84 +6 +6 1014.6 1012.9
08 11.07 С 3-3
{3}
н/о н/о +8.3 +5.6 83 +6 +6 1014.7 1013.0
09 11.07 С 3-3
{3}
н/о н/о +8.5 +5.7 83 +6 +6 1014.6 1012.9
10 11.07 С 3-3
{3}
н/о н/о +8.4 +5.6 83 +6 +6 1014.6 1012.9
11 11.07 С 2-2
{3}
н/о н/о +8.9 +6.1 83 +7 +7 1014.5 1012.8
12 11.07 С 2-3
{3}
н/о н/о +9.1 +6.1 81 +7 +7 1014.5 1012.8
13 11.07 -3
{3}
н/о н/о +9.1 +6.2 82 1014.8 1013.1
14 11.07 СВ 3-3
{4}
н/о н/о +9.0 +5.7 80 +7 +7 1014.7 1013.0
15 11.07 СВ 2-3
{3}
н/о н/о +9.0 +5.1 77 +7 +7 1014.7 1013.0
16 11.07 СВ 4-4
{4}
н/о н/о +9.3 +4.8 73 +7 +7 1014.5 1012.8
17 11.07 В 3-4
{5}
н/о н/о +9.3 +4.4 71 +7 +7 1014.5 1012.8
18 11.07 В 4-5
{5}
н/о н/о +9.1 +4.7 74 +6 +6 1014.3 1012.6 +7.9 +9.4
19 11.07 СВ 5-6
{6}
н/о н/о +9.0 +4.8 75 +6 +6 1014.3 1012.6
20 11.07 В 5-5
{6}
н/о н/о +8.9 +4.8 75 +6 +6 1014.4 1012.7
21 11.07 В 4-4
{5}
н/о н/о +8.8 +4.6 75 +6 +6 1014.6 1012.9
22 11.07 В 4-4
{5}
н/о н/о +8.5 +4.9 78 +5 +5 1014.6 1012.9
23 11.07 В 4-4
{5}
н/о н/о +8.4 +5.1 80 +5 +5 1014.5 1012.8
00 12.07 В 4-4
{6}
н/о н/о +8.5 +5.2 80 +5 +5 1014.5 1012.8
01 12.07 СВ 5-5
{5}
н/о н/о +8.6 +5.2 79 +5 +5 1014.5 1012.8
02 12.07 СВ 4-4
{5}
н/о н/о +8.8 +5.0 77 +6 +6 1014.5 1012.8
03 12.07 СВ 4-4
{5}
н/о н/о +9.0 +4.9 75 +6 +6 1014.5 1012.8
04 12.07 СВ 5-5
{5}
н/о н/о +9.0 +4.9 75 +6 +6 1014.5 1012.8
05 12.07 СВ 5-5
{6}
н/о н/о +9.1 +4.9 75 +6 +6 1014.7 1013.0
06 12.07 СВ 4-4
{6}
н/о н/о +8.9 +4.8 75 +6 +6 1014.8 1013.1 +8.1 +9.4
07 12.07 СВ 3-4
{4}
н/о н/о +9.2 +5.1 76 +7 +7 1015.1 1013.4
08 12.07 СВ 5-5
{5}
н/о н/о +8.7 +5.1 78 +5 +5 1015.0 1013.3
09 12.07 СВ 4-4
{5}
н/о н/о +9.2 +5.4 77 +6 +6 1015.1 1013.4
10 12.07 В 3-5
{5}
н/о н/о +9.6 +5.1 74 +7 +7 1015.3 1013.6
11 12.07 СВ 7-8
{8}
н/о н/о +8.6 +4.7 76 +4 +4 1015.1 1013.4
12 12.07 СВ 8-9
{9}
н/о н/о +8.5 +4.8 78 +4 +4 1015.0 1013.3
13 12.07 СВ 8-9
{9}
н/о н/о +8.4 +4.8 78 +4 +4 1015.2 1013.5
14 12.07 СВ 8-9
{9}
н/о н/о +8.3 +4.8 79 +4 +4 1015.5 1013.8
15 12.07 СВ 9-10
{10}
н/о н/о +8.2 +4.7 79 +3 +3 1015.4 1013.7
16 12.07 СВ 9-10
{11}
н/о н/о +8.2 +4.7 79 +3 +3 1015.5 1013.8
17 12.07 СВ 9-10
{11}
н/о н/о +8.2 +4.8 79 +3 +3 1015.5 1013.8
18 12.07 СВ 10-11
{11}
н/о н/о +8.0 +5.0 81 +3 +3 1015.6 1013.9 +8.0 +9.9
19 12.07 СВ 10-11
{11}
н/о н/о +7.8 +4.8 81 +3 +3 1015.8 1014.1
20 12.07 СВ 10-11
{11}
н/о н/о +7.9 +4.8 81 +3 +3 1016.0 1014.3
21 12.07 СВ 9-10
{11}
н/о н/о +7.8 +4.8 81 +3 +3 1016.1 1014.4
22 12.07 СВ 10-11
{11}
н/о н/о +7.6 +4.8 82 +2 +2 1016.4 1014.6
23 12.07 СВ 9-11
{11}
н/о н/о +7.5 +4.8 83 +2 +2 1016.4 1014.6
00 13.07 СВ 10-11
{11}
н/о н/о +7.4 +4.9 84 +2 +2 1016.6 1014.8
01 13.07 СВ 10-11
{11}
н/о н/о +7.3 +5.0 85 +2 +2 1016.7 1014.9
02 13.07 СВ 10-12
{12}
н/о н/о +7.2 +4.6 84 +2 +2 1016.8 1015.0
03 13.07 СВ 11-12
{12}
н/о н/о +7.3 +4.3 81 +2 +2 1016.8 1015.0
04 13.07 СВ 10-11
{12}
н/о н/о +7.5 +4.3 80 +2 +2 1017.1 1015.3
05 13.07 В 9-11
{11}
н/о н/о +7.9 +4.2 77 +3 +3 1017.3 1015.5
06 13.07 В 7-8
{12}
н/о н/о +8.7 +4.0 72 +5 +5 1017.4 1015.7 +7.2 +8.7
07 13.07 В 5-6
{8}
н/о н/о +8.4 +3.9 73 +5 +5 1017.7 1016.0
08 13.07 СВ 6-7
{7}
н/о н/о +8.2 +3.9 74 +4 +4 1017.7 1016.0
09 13.07 СВ 6-7
{7}
н/о н/о +8.0 +4.2 77 +4 +4 1017.9 1016.1
10 13.07 СВ 6-7
{7}
н/о н/о +7.7 +4.5 80 +4 +4 1017.9 1016.1
11 13.07 СВ 7-8
{8}
н/о н/о +7.5 +4.4 81 +3 +3 1017.8 1016.0
12 13.07 СВ 7-8
{9}
н/о н/о +7.2 +4.6 84 +2 +2 1017.8 1016.0
13 13.07 СВ 6-7
{7}
н/о н/о +7.5 +4.5 81 +3 +3 1017.9 1016.1
14 13.07 СВ 6-7
{8}
н/о н/о +7.5 +4.5 81 +3 +3 1017.9 1016.1
15 13.07 СВ 7-8
{8}
н/о н/о +7.4 +4.2 80 +3 +3 1018.1 1016.3
16 13.07 СВ 8-9
{9}
н/о н/о +7.0 +4.1 82 +2 +2 1017.9 1016.1
17 13.07 С 7-8
{9}
н/о н/о +6.6 +3.8 82 +2 +2 1017.9 1016.1
18 13.07 С 5-6
{9}
н/о н/о +7.2 +3.9 80 +3 +3 1017.9 1016.1 +6.6 +9.1
19 13.07 С 6-7
{7}
н/о н/о +7.1 +3.7 79 +3 +3 1017.8 1016.0
20 13.07 С 5-5
{8}
н/о н/о +7.3 +2.5 72 +4 +4 1018.1 1016.3
21 13.07 СВ 4-5
{7}
н/о н/о +7.5 +2.3 70 +4 +4 1017.8 1016.0
22 13.07 В 2-2
{4}
н/о н/о +7.5 +2.4 70 +6 +6 1017.7 1015.9
23 13.07 С 1-2
{3}
н/о н/о +7.2 +2.6 73 +6 +6 1017.7 1015.9
00 14.07 З 3-4
{8}
н/о н/о +7.2 +2.8 74 +4 +4 1017.7 1015.9
01 14.07 З 3-4
{4}
н/о н/о +6.6 +3.7 82 +4 +4 1017.4 1015.6
02 14.07 З 3-3
{4}
н/о н/о +6.4 +4.3 86 +3 +3 1017.4 1015.6
03 14.07 штиль 0-1
{3}
н/о н/о +6.6 +4.6 87 +6 +6 1017.5 1015.7
04 14.07 штиль 0-1
{2}
н/о н/о +7.3 +5.1 86 +6 +6 1017.4 1015.6
05 14.07 штиль 0-1
{1}
н/о н/о +7.7 +4.6 81 +7 +7 1017.4 1015.6
06 14.07 З 1-2
{4}
н/о н/о +7.8 +3.8 76 +7 +7 1017.3 1015.5 +6.3 +8.1
07 14.07 С 3-5
{6}
н/о н/о +6.3 +3.3 81 +3 +3 1017.2 1015.4
08 14.07 С 2-3
{3}
н/о н/о +7.5 +2.9 73 +6 +6 1017.3 1015.5
09 14.07 СЗ 2-3
{3}
н/о н/о +8.0 +3.3 72 +6 +6 1017.4 1015.6
10 14.07 З 2-3
{3}
н/о н/о +8.6 +3.4 70 +7 +7 1017.2 1015.5
11 14.07 З 2-2
{3}
н/о н/о +8.8 +2.8 66 +7 +7 1017.1 1015.4
12 14.07 З 3-4
{6}
н/о н/о +8.9 +3.1 67 +7 +7 1017.1 1015.4
13 14.07 СЗ 1-2
{6}
н/о н/о +7.3 +3.7 78 +7 +7 1017.0 1015.2
14 14.07 З 4-5
{5}
н/о н/о +9.0 +4.2 72 +6 +6 1016.9 1015.2
15 14.07 СЗ 6-6
{7}
н/о н/о +7.5 +3.4 75 +3 +3 1017.0 1015.2
16 14.07 СЗ 4-5
{6}
н/о н/о +8.3 +3.4 71 +5 +5 1016.7 1015.0
17 14.07 З 3-3
{5}
н/о н/о +8.8 +3.5 69 +7 +7 1016.5 1014.8
18 14.07 СЗ 3-3
{7}
н/о н/о +8.3 +3.2 70 +6 +6 1016.3 1014.6 +6.3 +9.5
19 14.07 СЗ 5-6
{6}
н/о н/о +7.3 +3.6 77 +3 +3 1016.2 1014.4
20 14.07 штиль 0-1
{5}
н/о н/о +7.5 +4.0 78 +7 +7 1016.1 1014.3
21 14.07 З 1-1
{1}
н/о н/о +7.7 +3.8 76 +7 +7 1015.9 1014.2
22 14.07 ЮЗ 1-2
{5}
н/о н/о +7.0 +3.8 80 +6 +6 1016.0 1014.2
23 14.07 Ю 1-2
{3}
н/о н/о +6.9 +3.8 81 +6 +6 1015.7 1013.9
00 15.07 Ю 2-3
{6}
н/о н/о +7.0 +4.1 82 +5 +5 1015.6 1013.8
01 15.07 Ю 1-2
{3}
н/о н/о +7.0 +4.3 83 +6 +6 1015.5 1013.7
02 15.07 штиль 0-1
{4}
н/о н/о +7.4 +4.7 83 +7 +7 1015.4 1013.6
03 15.07 СЗ 5-6
{6}
н/о н/о +6.7 +3.7 81 +3 +3 1015.4 1013.6
04 15.07 С 2-3
{5}
н/о н/о +6.7 +3.7 81 +5 +5 1015.4 1013.6
05 15.07 З 2-2
{2}
н/о н/о +7.9 +3.8 75 +6 +6 1015.3 1013.6
06 15.07 З 2-3
{6}
н/о н/о +7.6 +2.9 72 +6 +6 1015.2 1013.5 +6.7 +8.5
07 15.07 СЗ 3-3
{5}
н/о н/о +7.3 +3.7 78 +5 +5 1015.2 1013.4
08 15.07 СЗ 5-6
{6}
н/о н/о +6.8 +3.8 81 +3 +3 1015.5 1013.7
09 15.07 С 3-4
{6}
н/о н/о +6.9 +4.2 83 +4 +4 1015.6 1013.8
10 15.07 З 3-3
{3}
н/о н/о +7.6 +4.2 79 +5 +5 1015.6 1013.8
11 15.07 З 1-1
{3}
н/о н/о +8.5 +3.7 72 +8 +8 1015.5 1013.8
12 15.07 З 1-2
{6}
н/о н/о +9.1 +3.8 69 +9 +9 1015.7 1014.0
13 15.07 СЗ 5-6
{6}
н/о н/о +7.3 +3.9 79 +3 +3 1015.9 1014.1
14 15.07 СЗ 2-2
{5}
н/о н/о +7.6 +4.2 79 +6 +6 1016.0 1014.2
15 15.07 СЗ 1-2
{2}
н/о н/о +8.3 +3.6 72 +8 +8 1015.9 1014.2
16 15.07 СЗ 3-3
{3}
н/о н/о +7.5 +3.6 76 +5 +5 1016.1 1014.3
17 15.07 СЗ 1-2
{3}
н/о н/о +7.6 +3.7 76 +7 +7 1016.2 1014.4
18 15.07 штиль 0
{6}
н/о н/о +7.4 +3.7 77 +7 +7 1016.3 1014.5 +6.5 +9.3
19 15.07 В 2-2
{2}
н/о н/о +7.6 +4.2 79 +6 +6 1016.3 1014.5
20 15.07 СВ 1-2
{2}
н/о н/о +7.3 +4.0 80 +6 +6 1016.5 1014.7
21 15.07 В 1-1
{2}
н/о н/о +7.5 +4.2 80 +7 +7 1016.6 1014.8
22 15.07 В 1-2
{2}
н/о н/о +7.5 +3.9 78 +7 +7 1016.7 1014.9
23 15.07 В 1-2
{2}
н/о н/о +7.6 +3.9 77 +7 +7 1016.8 1015.0
00 16.07 В 1-2
{2}
н/о н/о +7.5 +3.9 78 +7 +7 1016.9 1015.1
01 16.07 В 1-1
{2}
н/о н/о +7.5 +4.2 80 +7 +7 1017.1 1015.3
02 16.07 штиль 0-1
{1}
н/о н/о +7.4 +4.0 79 +7 +7 1017.2 1015.4
03 16.07 СЗ 3-3
{4}
н/о н/о +6.9 +4.1 82 +4 +4 1017.3 1015.5
04 16.07 С 2-2
{3}
н/о н/о +7.0 +4.0 81 +5 +5 1017.6 1015.8
05 16.07 С 1-1
{2}
н/о н/о +7.4 +4.3 81 +7 +7 1017.7 1015.9
06 16.07 С 1-2
{4}
н/о н/о +7.4 +4.5 82 +7 +7 1017.8 1016.0 +6.9 +7.8
07 16.07 С 2-2
{2}
н/о н/о +7.9 +4.7 80 +6 +6 1017.8 1016.0
08 16.07 С 3-3
{3}
н/о н/о +8.3 +4.2 75 +6 +6 1017.8 1016.1
09 16.07 -3
{3}
н/о н/о +8.4 +4.2 75 1017.9 1016.2
10 16.07 С 3-3
{4}
н/о н/о +8.5 +4.3 75 +6 +6 1017.9 1016.2
11 16.07 С 3-3
{4}
н/о н/о +8.9 +4.2 72 +7 +7 1018.2 1016.5
12 16.07 С 4-5
{5}
н/о н/о +8.8 +4.9 76 +6 +6 1018.2 1016.5
13 16.07 СВ 4-4
{5}
н/о н/о +8.8 +5.8 81 +6 +6 1018.2 1016.5
14 16.07 СВ 3-4
{4}
н/о н/о +8.8 +6.2 84 +6 +6 1018.2 1016.5
15 16.07 СВ 3-4
{5}
н/о н/о +8.9 +6.1 83 +6 +6 1018.1 1016.4
16 16.07 СВ 5-6
{6}
н/о н/о +9.0 +5.2 77 +6 +6 1018.1 1016.4
17 16.07 В 7-8
{8}
н/о н/о +8.7 +5.0 78 +5 +5 1018.2 1016.5
18 16.07 СВ 9-10
{10}
н/о н/о +8.4 +4.9 79 +4 +4 1018.1 1016.4 +7.4 +9.6
19 16.07 СВ 8-9
{9}
н/о н/о +8.1 +5.0 81 +3 +3 1018.1 1016.3
20 16.07 СВ 7-8
{10}
н/о н/о +8.0 +5.1 82 +4 +4 1018.2 1016.4
21 16.07 В 7-8
{9}
н/о н/о +8.0 +5.1 82 +4 +4 1018.4 1016.6
22 16.07 СВ 7-8
{8}
н/о н/о +7.9 +5.3 84 +3 +3 1018.4 1016.6
23 16.07 СВ 8-8
{8}
н/о н/о +7.8 +5.3 84 +3 +3 1018.2 1016.4
00 17.07 СВ 7-8
{10}
н/о н/о +7.7 +5.4 85 +3 +3 1018.0 1016.2
01 17.07 СВ 8-9
{9}
н/о н/о +7.7 +5.4 85 +3 +3 1017.8 1016.0
02 17.07 СВ 8-9
{9}
н/о н/о +7.6 +5.5 87 +3 +3 1017.6 1015.8
03 17.07 СВ 8-8
{9}
н/о н/о +7.5 +5.6 88 +2 +2 1017.3 1015.5
04 17.07 СВ 7-8
{8}
н/о н/о +7.6 +5.6 87 +3 +3 1017.1 1015.3
05 17.07 СВ 7-8
{9}
н/о н/о +7.4 +5.5 88 +3 +3 1016.9 1015.1
06 17.07 СВ 7-8
{10}
н/о н/о +7.4 +5.2 86 +3 +3 1016.6 1014.8 +7.2 +8.4
07 17.07 СВ 7-8
{8}
н/о н/о +7.1 +5.0 86 +2 +2 1016.3 1014.5
08 17.07 СВ 6-7
{8}
н/о н/о +7.4 +5.1 85 +3 +3 1016.1 1014.3
09 17.07 СВ 6-7
{9}
н/о н/о +6.9 +4.9 87 +2 +2 1015.9 1014.1
10 17.07 С 5-6
{6}
н/о н/о +7.3 +4.7 84 +3 +3 1015.7 1013.9
11 17.07 С 5-6
{7}
н/о н/о +7.3 +4.8 84 +3 +3 1015.6 1013.8
12 17.07 СЗ 6-7
{9}
н/о н/о +7.2 +4.2 81 +3 +3 1015.3 1013.5
13 17.07 СЗ 6-7
{7}
н/о н/о +7.0 +3.9 81 +3 +3 1015.0 1013.2
14 17.07 СЗ 4-5
{6}
н/о н/о +7.1 +4.1 81 +4 +4 1014.8 1013.0
15 17.07 СЗ 3-4
{6}
н/о н/о +6.9 +4.4 84 +4 +4 1014.4 1012.6
16 17.07 СЗ 7-8
{8}
н/о н/о +6.9 +3.9 81 +2 +2 1014.2 1012.4
17 17.07 З 7-8
{9}
н/о н/о +7.1 +3.6 78 +2 +2 1014.0 1012.2
18 17.07 З 8-9
{9}
н/о н/о +7.0 +3.8 80 +2 +2 1013.8 1012.0 +6.7 +7.5
19 17.07 З 8 н/о н/о +6.9 +3.7 80 +2 +2 1013.6 1011.8
20 17.07 З 8 н/о н/о +7.0 +3.9 81 +2 +2 1013.5 1011.7
21 17.07 З 9-10
{10}
н/о н/о +7.3 +3.8 78 +2 +2 1013.6 1011.9
22 17.07 З 8-9
{10}
н/о н/о +7.4 +3.9 78 +3 +3 1013.9 1012.2
23 17.07 З 8 н/о н/о +7.5 +3.3 75 +3 +3 1014.0 1012.3
00 18.07 З 9-11
{11}
н/о н/о +7.1 +3.0 75 +2 +2 1014.6 1012.8
01 18.07 З 7-9
{10}
н/о н/о +7.2 +2.8 74 +3 +3 1014.9 1013.1
02 18.07 З 6-7
{8}
н/о н/о +7.5 +2.7 72 +3 +3 1015.1 1013.4
03 18.07 З 4-5
{8}
н/о н/о +7.6 +3.0 73 +4 +4 1015.9 1014.1

 

Местоположение метеостанции Маяк Fruholmen (Норвегия): широта 71.09 долгота 23.98 высота над уровнем моря 13 м.

В архиве по умолчанию представлена погода на Маяке Fruholmen за последнюю неделю. Архивные данные за месяц целиком и за предыдущие месяцы, начиная с января 2011 года, Вы можете получить, выбрав интересующий диапазон дат из раскрывающегося списка и нажав кнопку "Ввод!".


*Определитесь, кто Вы:
робот инопланетянин человек

Внимание! Время в таблицах - всемирное. Для получения местного времени необходимо прибавить поправку, которая равна 1 ч.

Смотрите также архив погоды в соседних городах и на ближайших метеорологических станциях:

Погода в Хаммерфест аэропорту (Норвегия) (51 км)
Погода в Хоннигсвог аэропорту (Норвегия) (73 км)
Погода на Хасвике (Норвегия) (78 км)
Погода в Рогнсундете (Норвегия) (87 км)
Погода в Хасвик аэропорту (Норвегия) (95 км)
Погода в Банаке (Норвегия) (120 км)
Погода в Альта аэропорту (Норвегия) (126 км)
Погода в Мехамн аэропорту (Норвегия) (139 км)
Погода на Маяке Slettnes (Норвегия) (153 км)
Погода в Суоловуопми-Лулит (Норвегия) (169 км)

Пояснения к столбцам:

Ветер - указаны скорость ветра в м/с - средняя за 10 мин, порывы в срок и между сроками (в фигурных скобках) и направление, откуда дует ветер: С - северный, СВ - северо-восточный, В - восточный, ЮВ - юго-восточный, Ю - южный, ЮЗ - юго-западный, З - западный, СЗ - северо-западный.
Видимость - горизонтальная дальность видимости в метрах или километрах. При видимости от 1 до 10 км при отсутствии осадков обычно наблюдается дымка, при ухудшении видимости до 1 км и менее - туман. В сухую погоду видимость может ухудшаться дымом, пылью или мглою.
Явления - указаны атмосферные явления, наблюдавшиеся в срок или в последний час перед сроком; фигурными скобками обозначены явления, наблюдавшиеся между сроками (за 1-3 часа до срока); квадратными скобками обозначены град или гололедные отложения с указанием их диаметра в мм.
Облачность - указаны через наклонную черту общая и нижняя облачность в баллах и высота нижней границы облаков в метрах; квадратными скобками обозначены формы облаков: Ci - перистые, Cs - перисто-слоистые, Cc - перисто-кучевые, Ac - высококучевые, As - высокослоистые, Sc - слоисто-кучевые, Ns - слоисто-дождевые, Cu - кучевые, Cb - кучево-дождевые. Подробнее классификацию облаков см. в Атласе облаков (PDF).
T - Температура воздуха - температура, измеренная на высоте 2 м над землей.
Td - Температура точки росы - температура, при понижении до которой содержащийся в воздухе водяной пар достигнет насыщения.
f - Относительная влажность воздуха - влажноcть воздуха, измеренная на высоте 2 м над землей.
Te - Эффективная температура - температура, которую ощущает одетый по сезону человек в тени. Характеристика душности погоды. При расчете учитывается влияние влажности воздуха и скорости ветра на теплоощущения человека.
Tes - Эффективная температура на солнце - температура, которую ощущает человек, с поправкой на солнечный нагрев. Характеристика знойности погоды. Зависит от высоты солнца над горизонтом, облачности и скорости ветра. Ночью, в пасмурную погоду, а также при ветре 12 м/с и более поправка равна нулю.
P - Атмосферное давление - приведенное к уровню моря атмосферное давление.
Po - Атмосферное давление - измеренное на уровне метеостанции атмосферное давление.
Tmin - Минимальная температура - минимум температуры воздуха на высоте 2 м над землей.
Tmax - Максимальная температура - максимум температуры воздуха на высоте 2 м над землей.
R - Количество осадков - Количество выпавших осадков за период времени, мм. При наведении курсора мыши на число - период времени, за который выпало указанное количество осадков.
R24 - Количество осадков - Количество выпавших осадков за 24 часа, мм.
S - Снежный покров - Высота снежного покрова, см. При наведении курсора мыши на число - состояние снежного покрова и степень покрытия местности в баллах.